Location: Rimouski
(48.4330°N, 68.5170°W)
Time: 14:35:21
(UTC-04:00)

Daily predictions for brighter satellites

Satellite Brightness Start Highest point End
(mag) Time Altitude Azimuth Time Altitude Azimuth Time Altitude Azimuth
Cosmos 2369 Rocket 3.0 18:37:21 10° NNW 18:42:30 34° NE 18:47:38 10° ESE
CENTAUR R/B 3.8 18:40:57 10° SSE 18:45:00 18° ESE 18:49:18 10° ENE
SAR-Lupe-1 4.1 18:42:24 10° SSE 18:45:54 58° ENE 18:49:25 10° N
Resurs 1-3 4.5 18:42:41 10° SE 18:46:29 29° ENE 18:50:17 10° N
SL-19 R/B 4.5 18:41:40 10° SSE 18:47:23 86° ENE 18:53:34 10° NNW
ALOS 3.4 18:44:38 10° ESE 18:48:23 25° ENE 18:52:10 10° N
Cosmos 1805 3.9 18:44:51 10° SSE 18:48:24 33° E 18:52:00 10° NNE
Cosmos 192 4.4 18:44:23 10° S 18:49:17 66° ESE 18:54:14 10° NNE
Helios 1B rocket 3.5 18:48:31 10° NE 18:51:50 23° E 18:55:08 10° SSE
Resurs 01 Rocket 2.0 18:50:09 10° SE 18:54:21 43° ENE 18:58:34 10° N
Cosmos 1603 4.2 18:49:58 10° S 18:55:17 40° ESE 19:00:38 10° NE
Cosmos 1420 Rocket 4.1 18:51:30 10° NNW 18:56:47 63° ENE 19:02:03 10° SE
Meteor 1-22 Rocket 4.2 18:51:34 10° SSW 18:56:53 86° W 19:02:13 10° N
Meteor 1-24 Rocket 4.5 18:51:23 10° NNW 18:56:54 58° W 19:02:13 10° S
NOSS 3-2 (C) 3.5 18:52:33 10° SSW 18:58:40 70° SE 19:05:24 10° NE
COSMO-SKYMED 1 2.7 18:55:39 10° NNE 19:00:01 83° WNW 19:04:22 10° SSW
Nadezhda 4 Rocket 4.2 18:54:52 10° N 19:01:01 51° ENE 19:07:03 10° SSE
In-Cosmos 22 4.3 18:55:30 10° N 19:01:20 84° ENE 19:07:05 10° SSE
Cosmos 1953 2.5 18:57:46 10° SSE 19:01:36 48° E 19:05:27 10° NNE
ISS -1.6 19:01:11 10° S 19:03:29 18° SE 19:05:06 13° ESE
ERBS 3.4 19:05:25 10° NW 19:08:37 33° NNE 19:11:06 15° E
Cosmos 1092 Rocket 4.3 19:04:57 10° N 19:10:55 45° ENE 19:16:47 10° SE
Cosmos 1674 3.2 19:07:28 10° N 19:11:09 39° ENE 19:14:49 10° SE
Cosmos 1076 Rocket 4.1 19:07:49 10° NNW 19:12:07 63° W 19:16:25 10° S
GP-B 4.4 19:09:20 10° NNE 19:12:42 21° E 19:15:27 12° ESE
Cosmos 1470 3.7 19:10:37 10° SSE 19:13:53 26° E 19:17:10 10° NNE
Cosmos 2333 Rocket 4.1 19:08:48 10° WSW 19:13:53 31° NW 19:19:01 10° NNE
Cosmos 2058 4.5 19:11:32 10° NNE 19:14:19 17° ENE 19:15:31 16° E
Spot 2 Rocket 3.4 19:10:43 10° SSE 19:15:43 72° ENE 19:20:46 10° N
Cosmos 1766 Rocket 3.9 19:12:58 10° NNW 19:17:20 67° W 19:21:38 10° S
Cosmos 1048 Rocket 4.3 19:14:38 10° S 19:19:35 42° ESE 19:24:30 10° NE
ATLAS 5 CENTAUR R/B 1.9 19:15:52 10° SW 19:20:43 88° SE 19:26:04 10° NE
Cosmos 2151 3.8 19:18:49 10° N 19:22:31 29° ENE 19:24:58 17° ESE
Abrixas 3.6 19:20:36 10° SW 19:23:14 28° SSE 19:24:16 23° ESE
Cosmos 1269 Rocket 4.1 19:19:48 10° S 19:24:56 54° ESE 19:30:05 10° NNE
Cosmos-2242 3.0 19:21:17 10° S 19:25:40 78° E 19:30:04 10° NNE
Envisat 4.4 19:25:23 16° E 19:27:02 19° ENE 19:30:32 10° NNE
USA 215 3.9 19:22:12 10° ENE 19:28:02 34° SE 19:33:51 10° SSW
Cosmos 2237 Rocket 4.2 19:24:37 10° WSW 19:29:30 28° NW 19:34:23 10° NNE
SJ-6B 4.0 19:25:51 10° S 19:29:44 48° W 19:33:44 10° NNW
Cosmos 1634 Rocket 4.4 19:25:52 10° SSE 19:31:32 38° E 19:37:12 10° NNE
Cosmos 2221 4.2 19:32:53 16° ENE 19:32:53 16° ENE 19:34:33 10° NE
Cosmos 158 Rocket 4.5 19:27:38 10° SSE 19:31:55 32° ESE 19:36:12 10° NE
Cosmos 1346 3.6 19:29:18 10° NNW 19:32:15 58° W 19:35:10 10° S
HJ-1C 3.6 19:29:11 10° S 19:32:32 74° WSW 19:35:56 10° NNW
FengYun 1-2 T 4.1 19:28:26 10° SSE 19:33:56 81° ENE 19:39:26 10° NNW
ATLAS CENTAUR R/B 4.1 19:28:08 10° SW 19:34:00 81° SE 19:54:09 10° NE
FREGAT/IRIS 4.0 19:31:40 10° S 19:34:37 41° W 19:37:35 10° NNW
Cosmos 1544 3.0 19:32:20 10° S 19:36:04 82° E 19:39:51 10° NNE
Cosmos 724 4.3 19:34:27 10° SW 19:40:26 88° SE 19:46:37 10° NE
ATLAS 3B R/B 4.4 19:39:16 10° W 19:45:43 30° NNW 19:51:57 10° NE
Cosmos 1758 4.2 19:42:13 10° SSW 19:46:15 54° WNW 19:50:18 10° N
Cosmos 2034 Rocket 4.3 19:41:13 10° SSW 19:47:29 71° WNW 19:53:51 10° N
Cosmos 1500 Rocket 3.6 19:44:58 10° N 19:49:26 85° W 19:53:54 10° S
CZ-4B DEB 2.7 19:49:16 22° SSE 19:51:17 87° ENE 19:54:35 10° NNW
SL-16 R/B 3.7 19:46:24 10° WSW 19:51:41 38° NW 19:56:59 10° NNE
Cosmos 1842 Rocket 3.4 19:49:53 10° S 19:54:12 77° E 19:58:36 10° NNE
ERS-1 Rocket 3.6 19:55:49 31° E 19:56:59 35° ENE 20:01:31 10° N
FENGYUN 3A 3.6 19:52:35 10° SSE 19:57:59 87° W 20:03:25 10° NNW
Helios 1A 4.1 19:57:55 10° S 20:01:58 45° W 20:06:03 10° NNW
CZ-4C R/B 4.1 19:59:17 10° W 20:04:16 28° NNW 20:09:50 10° NE
Cosmos 1328 3.6 20:01:16 10° N 20:05:16 80° E 20:06:53 35° SSE
Meteor 1-29 3.4 20:03:50 10° N 20:07:19 62° WNW 20:10:46 10° SSW
Cosmos 1110 Rocket 3.9 20:01:59 10° NNW 20:07:19 79° ENE 20:10:02 30° SSE
CZ-2D R/B 3.4 20:06:27 22° S 20:08:54 75° WSW 20:12:49 10° NNW
SL-14 R/B 3.4 20:05:04 10° N 20:09:03 54° ENE 20:09:16 53° E
Cosmos 1627 Rocket 4.4 20:08:00 10° N 20:14:15 83° E 20:19:37 15° S
ASTEX 1 3.5 20:10:43 10° N 20:15:39 76° W 20:20:31 10° SSW
Cosmos 1939 Rocket 3.7 20:20:12 35° NE 20:20:12 35° NE 20:23:03 10° N
Cosmos 1943 Rocket 2.1 20:13:41 10° NNW 20:19:21 74° ENE 20:21:11 43° SE
H-2A R/B 3.3 20:17:06 23° S 20:19:21 58° W 20:23:11 10° NNW
USA 186 4.0 20:27:05 16° NNW 20:27:05 16° NNW 20:27:48 10° NNW
ALOS 3.3 20:21:07 10° S 20:25:36 45° W 20:30:07 10° NNW
Cosmos 2369 Rocket 3.0 20:21:18 10° NW 20:26:44 48° WSW 20:31:02 16° S
Helios 1B rocket 3.9 20:23:27 10° N 20:27:16 37° WNW 20:31:04 10° SW
Cosmos 2251 Rocket 3.4 20:23:47 10° S 20:28:54 60° ESE 20:34:06 10° NNE
Aureole 3 4.2 20:23:42 10° N 20:29:53 56° ENE 20:30:22 54° E
Resurs 01 Rocket 4.0 20:27:27 10° SSW 20:31:00 23° W 20:34:35 10° NW
SPOT 5 4.1 20:32:48 25° NNE 20:32:48 25° NNE 20:35:11 10° N
Cosmos 1943 3.1 20:26:10 10° SSW 20:31:49 86° WNW 20:37:29 10° NNE
SL-8 R/B 3.6 20:29:34 10° WSW 20:34:18 70° SSE 20:34:18 70° SSE
CENTAUR R/B 2.5 20:28:18 10° SW 20:34:28 85° SE 20:41:34 10° NE
Sich 1 3.7 20:30:16 10° N 20:33:34 43° NNE 20:33:34 43° NNE
Cosmos 2180 Rocket 4.4 20:34:58 50° SE 20:36:04 57° E 20:42:05 10° NNE
Gbstr 26 Del rocket 3.4 20:31:51 10° SW 20:36:27 63° SSE 20:36:27 63° SSE
Cosmos 1331 Rocket 4.2 20:33:13 10° NNW 20:38:31 68° WSW 20:40:19 41° S
ISS -1.3 20:36:20 10° WSW 20:37:46 24° WSW 20:37:46 24° WSW
BREEZE-M DEB (TANK) 3.3 20:30:33 10° W 20:40:59 59° SSW 20:41:39 53° SSE
ERBS 3.8 20:42:09 10° WNW 20:44:32 36° W 20:44:32 36° W
GP-B 4.1 20:46:00 10° N 20:50:15 45° W 20:52:57 20° SW
Cosmos 2058 3.6 20:47:35 10° NNW 20:51:35 49° W 20:51:47 49° WSW
Cosmos 2279 Rocket 3.8 20:48:01 27° S 20:51:39 87° E 20:57:54 10° N
Cosmos 1302 Rocket 3.9 20:46:58 10° NNW 20:52:12 84° WSW 20:52:26 80° SSW
Cosmos 1805 Rocket 4.2 20:56:56 10° NNW 21:01:08 53° W 21:01:08 53° W
H-2A R/B 3.4 21:03:10 34° N 21:03:10 34° N 21:05:52 10° N
Cosmos 2266 Rocket 4.0 20:59:09 10° N 21:05:12 67° ENE 21:05:12 67° ENE
Envisat 3.1 21:05:36 73° W 21:05:36 73° W 21:10:37 10° NNW
ATLAS 5 CENTAUR R/B 3.9 21:01:51 10° W 21:06:09 27° NNW 21:10:47 10° NNE
Cosmos 2221 3.6 21:09:42 42° NW 21:09:42 42° NW 21:13:04 10° N
USA 215 3.2 21:09:20 46° NE 21:11:31 86° NNW 21:18:04 10° WSW
Cosmos 1633 Rocket 4.2 21:08:46 10° NNW 21:11:38 39° NNW 21:11:38 39° NNW
Terra 4.1 21:23:48 15° NNE 21:23:48 15° NNE 21:24:52 10° N
Cosmos 1656 Rocket 3.9 21:16:07 10° NNW 21:20:43 63° NW 21:20:43 63° NW
ARGOS 4.1 21:28:31 40° N 21:28:31 40° N 21:32:04 10° N
H-2A R/B 3.8 21:30:01 23° NNE 21:30:01 23° NNE 21:32:11 10° N
ERS-1 Rocket 4.2 21:35:50 35° W 21:35:50 35° W 21:40:23 10° NNW
CZ-4C R/B 4.5 21:50:13 10° NW 21:54:57 22° N 21:57:39 17° NE
Cosmos 1980 Rocket 4.2 21:53:19 10° N 21:55:57 19° NNE 21:55:57 19° NNE
Cosmos 1943 Rocket 4.2 21:58:33 10° NW 22:02:27 20° W 22:02:44 19° WSW
CENTAUR R/B 4.0 22:20:06 10° W 22:26:00 35° NNW 22:32:37 10° NE
ATLAS 3B R/B 4.2 23:24:53 10° NW 23:29:04 30° N 23:29:04 30° N
CZ-4C R/B 4.4 23:39:25 10° NW 23:42:48 27° N 23:42:48 27° N
